2021/03/08 23:30:32+0000,-37.89,-45.77,-32.19,-51.43,-55.63,-57.05
2021/03/08 23:31:32+0000,-38.75,-46.23,-32.58,-51.30,-55.21,-57.20
2021/03/08 23:32:24+0000,-38.45,-45.64,-32.33,-65.83,-54.82,-57.18
2021/03/08 23:33:16+0000,-38.35,-46.39,-32.96,-52.26,-55.21,-56.98
2021/03/08 23:34:08+0000,-37.98,-45.43,-33.61,-66.26,-55.29,-56.88
2021/03/08 23:35:00+0000,-38.30,-46.00,-32.47,-50.95,-54.55,-57.37
2021/03/08 23:35:52+0000,-37.96,-46.40,-33.00,-65.90,-54.56,-57.43
2021/03/08 23:36:44+0000,-38.10,-45.86,-33.67,-51.27,-55.23,-55.10
2021/03/08 23:37:36+0000,-37.92,-45.58,-33.32,-67.13,-54.80,-55.91
2021/03/08 23:38:28+0000,-38.35,-46.68,-33.12,-50.21,-54.86,-55.08
2021/03/08 23:39:20+0000,-38.24,-45.73,-33.39,-52.52,-54.86,-55.27
2021/03/08 23:40:13+0000,-38.19,-45.58,-33.43,-52.58,-55.17,-55.15
2021/03/08 23:41:13+0000,-37.93,-45.54,-32.39,-52.31,-54.92,-54.43
2021/03/08 23:42:05+0000,-37.94,-45.60,-32.52,-54.41,-54.45,-55.16
2021/03/08 23:42:57+0000,-37.64,-45.12,-33.61,-49.40,-55.08,-54.77
2021/03/08 23:43:49+0000,-37.20,-46.58,-32.11,-53.48,-55.60,-55.08
2021/03/08 23:44:41+0000,-37.63,-46.17,-32.51,-67.91,-54.97,-54.90
2021/03/08 23:45:33+0000,-37.90,-45.92,-33.45,-49.16,-55.33,-55.08
2021/03/08 23:46:25+0000,-38.40,-45.45,-33.00,-64.74,-54.68,-55.37
2021/03/08 23:47:17+0000,-37.25,-46.29,-32.97,-52.27,-54.68,-54.96
2021/03/08 23:48:09+0000,-37.83,-45.15,-32.98,-66.01,-54.52,-54.88
2021/03/08 23:49:01+0000,-37.23,-45.81,-33.20,-49.91,-54.84,-55.15
2021/03/08 23:49:53+0000,-37.86,-44.96,-33.53,-65.90,-55.34,-54.91
2021/03/08 23:50:45+0000,-37.41,-45.29,-33.13,-51.76,-54.80,-55.50
2021/03/08 23:51:45+0000,-36.90,-45.40,-33.26,-50.58,-54.92,-55.17
2021/03/08 23:52:37+0000,-36.97,-46.10,-33.04,-65.63,-54.95,-55.47
2021/03/08 23:53:30+0000,-37.35,-45.41,-32.75,-52.48,-55.10,-55.27
2021/03/08 23:54:22+0000,-37.08,-45.21,-33.16,-65.28,-55.05,-55.46
2021/03/08 23:55:14+0000,-37.44,-45.28,-32.88,-51.35,-55.00,-55.40
2021/03/08 23:56:06+0000,-37.91,-45.68,-33.01,-54.44,-54.67,-55.07
2021/03/08 23:56:58+0000,-37.83,-45.02,-33.58,-52.69,-54.77,-54.70
2021/03/08 23:57:50+0000,-38.27,-45.70,-33.33,-54.15,-54.94,-55.21
2021/03/08 23:58:42+0000,-38.08,-44.53,-32.91,-50.01,-55.51,-55.16
2021/03/08 23:59:34+0000,-38.99,-45.38,-33.65,-53.75,-54.45,-55.41
2021/03/09 00:00:26+0000,-38.15,-45.10,-33.32,-52.52,-55.32,-54.84
2021/03/09 00:01:29+0000,-37.55,-44.58,-33.12,-52.76,-55.50,-54.36
2021/03/09 00:02:21+0000,-38.61,-44.40,-33.18,-52.58,-54.77,-55.02
2021/03/09 00:03:13+0000,-38.10,-44.82,-33.30,-64.78,-54.57,-55.22
2021/03/09 00:04:05+0000,-38.38,-45.69,-33.35,-48.35,-55.44,-53.66
2021/03/09 00:04:57+0000,-38.65,-44.63,-32.71,-52.00,-54.49,-54.59
2021/03/09 00:05:49+0000,-39.50,-45.02,-33.66,-52.64,-54.38,-53.80
2021/03/09 00:06:41+0000,-38.92,-44.19,-33.49,-50.58,-54.47,-54.24
2021/03/09 00:07:33+0000,-38.61,-44.43,-33.54,-52.76,-54.69,-54.35
2021/03/09 00:08:25+0000,-38.87,-44.38,-33.15,-48.73,-54.41,-53.97
2021/03/09 00:09:17+0000,-38.27,-44.26,-33.47,-53.40,-54.73,-54.67
2021/03/09 00:10:10+0000,-38.64,-44.19,-33.85,-49.19,-54.44,-53.88
2021/03/09 00:11:10+0000,-39.07,-44.15,-33.71,-50.40,-53.92,-53.61
2021/03/09 00:12:02+0000,-39.26,-44.16,-33.34,-52.94,-54.54,-54.24
2021/03/09 00:12:54+0000,-39.70,-43.71,-33.95,-52.30,-54.13,-54.04
2021/03/09 00:13:46+0000,-39.15,-43.58,-32.97,-51.57,-54.84,-54.11
2021/03/09 00:14:38+0000,-38.45,-43.64,-32.78,-51.09,-54.84,-53.85
2021/03/09 00:15:30+0000,-39.23,-44.23,-33.65,-51.88,-54.78,-55.71
2021/03/09 00:16:22+0000,-39.17,-43.74,-32.48,-52.57,-54.09,-55.90
2021/03/09 00:17:14+0000,-38.62,-44.11,-32.51,-51.13,-54.79,-55.19
2021/03/09 00:18:07+0000,-38.57,-45.01,-32.31,-51.16,-54.46,-56.24
2021/03/09 00:18:59+0000,-38.80,-44.09,-32.18,-51.70,-54.68,-55.76
2021/03/09 00:19:51+0000,-38.12,-44.07,-32.81,-52.25,-55.15,-55.24
2021/03/09 00:20:43+0000,-37.85,-44.90,-32.41,-51.05,-54.85,-55.20
2021/03/09 00:21:43+0000,-38.33,-45.74,-32.38,-51.40,-54.48,-55.92
2021/03/09 00:22:35+0000,-38.32,-46.43,-33.13,-52.82,-54.97,-55.85
2021/03/09 00:23:27+0000,-34.76,-45.23,-32.83,-27.08,-54.43,-55.58
2021/03/09 00:24:19+0000,-38.84,-46.00,-32.22,-52.93,-54.38,-55.54
2021/03/09 00:25:11+0000,-38.71,-44.93,-32.55,-49.51,-54.54,-56.13
2021/03/09 00:26:03+0000,-38.22,-45.96,-31.90,-31.61,-54.48,-55.66
2021/03/09 00:26:55+0000,-39.20,-45.51,-32.52,-27.44,-54.75,-55.39
2021/03/09 00:27:47+0000,-38.44,-45.12,-31.99,-43.36,-54.94,-55.82
2021/03/09 00:28:39+0000,-38.19,-44.68,-32.43,-49.17,-54.40,-55.55
2021/03/09 00:29:31+0000,-37.49,-45.75,-32.60,-27.24,-54.70,-56.04
2021/03/09 00:30:23+0000,-37.65,-46.30,-32.66,-27.22,-55.52,-55.64
2021/03/09 00:31:47+0000,-37.73,-44.44,-32.23,-51.94,-54.45,-55.44
2021/03/09 00:32:39+0000,-38.85,-45.05,-32.87,-50.56,-54.89,-55.52
2021/03/09 00:33:31+0000,-37.61,-45.50,-32.94,-26.93,-53.91,-56.12
2021/03/09 00:34:23+0000,-37.87,-45.83,-33.20,-27.10,-54.69,-55.27
2021/03/09 00:35:15+0000,-38.01,-45.24,-33.26,-51.20,-53.82,-55.89
2021/03/09 00:36:07+0000,-38.19,-46.17,-32.67,-51.53,-54.20,-55.52
2021/03/09 00:36:59+0000,-39.02,-45.93,-33.37,-27.07,-54.47,-55.51
2021/03/09 00:37:51+0000,-39.43,-46.74,-31.39,-52.65,-54.76,-55.64
2021/03/09 00:38:43+0000,-39.18,-45.82,-32.90,-51.70,-54.85,-56.06
2021/03/09 00:39:35+0000,-38.60,-46.67,-32.39,-51.87,-54.35,-55.39
2021/03/09 00:40:27+0000,-38.95,-46.31,-32.87,-52.42,-54.84,-55.95
2021/03/09 00:41:27+0000,-38.77,-46.23,-32.96,-51.77,-54.59,-55.85
2021/03/09 00:42:19+0000,-38.95,-45.02,-32.92,-53.24,-54.21,-55.28
2021/03/09 00:43:11+0000,-38.69,-44.81,-32.60,-52.06,-54.98,-55.44
2021/03/09 00:44:03+0000,-38.35,-45.41,-32.45,-53.63,-55.51,-55.75
2021/03/09 00:44:55+0000,-38.31,-46.36,-32.36,-50.97,-55.95,-55.65
2021/03/09 00:45:47+0000,-38.39,-45.32,-31.90,-51.56,-55.23,-55.58
2021/03/09 00:46:39+0000,-37.95,-45.25,-32.38,-47.63,-55.21,-55.63
2021/03/09 00:47:31+0000,-38.29,-45.98,-32.38,-51.94,-55.19,-55.51
2021/03/09 00:48:24+0000,-38.84,-45.18,-32.80,-51.88,-54.42,-55.51
2021/03/09 00:49:16+0000,-39.01,-45.75,-32.63,-48.34,-54.73,-55.43
2021/03/09 00:50:08+0000,-38.74,-45.39,-32.73,-52.39,-55.04,-55.54
2021/03/09 00:51:08+0000,-38.49,-46.04,-32.02,-44.25,-55.72,-55.05
2021/03/09 00:52:00+0000,-38.69,-46.88,-31.93,-51.88,-54.86,-55.65
2021/03/09 00:52:52+0000,-39.21,-47.14,-32.56,-50.75,-55.94,-55.70
2021/03/09 00:53:44+0000,-38.66,-45.82,-32.71,-45.42,-55.75,-55.45
2021/03/09 00:54:36+0000,-39.18,-47.02,-32.22,-49.41,-54.68,-55.76
2021/03/09 00:55:28+0000,-38.02,-46.90,-32.04,-52.30,-55.60,-56.23
2021/03/09 00:56:20+0000,-38.96,-47.24,-32.11,-53.45,-54.95,-55.00
2021/03/09 00:57:12+0000,-39.39,-45.55,-32.14,-40.97,-54.84,-55.37
2021/03/09 00:58:05+0000,-39.22,-47.19,-32.24,-53.54,-55.03,-55.42
2021/03/09 00:58:57+0000,-39.37,-47.04,-31.94,-51.99,-54.64,-55.86
2021/03/09 00:59:49+0000,-38.86,-46.69,-32.59,-53.21,-54.43,-55.62
2021/03/09 01:00:41+0000,-38.68,-49.17,-32.31,-49.82,-53.99,-55.09
2021/03/09 01:01:42+0000,-39.45,-48.49,-32.71,-52.25,-54.22,-55.36
2021/03/09 01:02:34+0000,-38.93,-46.73,-32.13,-52.86,-54.66,-55.83
2021/03/09 01:03:26+0000,-39.15,-48.11,-32.30,-51.11,-54.26,-55.34
2021/03/09 01:04:18+0000,-38.89,-47.85,-32.04,-53.29,-54.54,-55.63
2021/03/09 01:05:10+0000,-39.25,-48.65,-31.66,-50.62,-54.70,-55.96
2021/03/09 01:06:02+0000,-39.12,-47.66,-31.93,-51.61,-53.78,-55.62
2021/03/09 01:06:54+0000,-39.31,-47.65,-31.69,-52.67,-54.54,-55.60
2021/03/09 01:07:46+0000,-38.82,-47.08,-32.06,-50.94,-54.40,-55.89
2021/03/09 01:08:38+0000,-38.74,-47.87,-31.89,-52.33,-54.00,-56.05
2021/03/09 01:09:30+0000,-39.40,-46.79,-32.54,-52.39,-54.36,-56.02
2021/03/09 01:10:23+0000,-38.39,-47.66,-32.65,-51.82,-53.99,-55.81
2021/03/09 01:11:23+0000,-39.26,-47.44,-32.62,-51.87,-54.27,-55.17
2021/03/09 01:12:15+0000,-39.34,-48.94,-32.26,-50.96,-54.40,-56.05
2021/03/09 01:13:07+0000,-39.73,-49.31,-32.50,-51.07,-53.97,-55.60
2021/03/09 01:13:59+0000,-39.00,-48.03,-32.07,-51.79,-54.35,-55.46
2021/03/09 01:14:51+0000,-38.17,-49.92,-32.33,-51.76,-54.74,-55.55
2021/03/09 01:15:43+0000,-38.40,-48.35,-32.33,-52.02,-54.87,-55.63
2021/03/09 01:16:35+0000,-37.69,-49.31,-32.45,-52.31,-54.39,-56.31
2021/03/09 01:17:27+0000,-37.20,-45.99,-32.59,-51.36,-54.29,-55.71
2021/03/09 01:18:19+0000,-38.15,-48.22,-32.35,-52.10,-54.52,-56.46
2021/03/09 01:19:11+0000,-36.95,-48.43,-32.53,-52.24,-54.59,-55.99
2021/03/09 01:20:03+0000,-37.42,-46.96,-32.08,-51.45,-54.27,-55.45
2021/03/09 01:21:03+0000,-38.10,-47.15,-32.41,-51.53,-54.25,-55.58
2021/03/09 01:21:55+0000,-37.83,-46.54,-32.48,-50.81,-54.39,-56.36
2021/03/09 01:22:48+0000,-37.39,-47.47,-32.50,-50.41,-53.94,-56.01
2021/03/09 01:23:40+0000,-37.32,-47.19,-33.30,-50.29,-54.68,-55.61
2021/03/09 01:24:32+0000,-36.87,-47.02,-32.37,-50.16,-53.81,-55.94
2021/03/09 01:25:24+0000,-37.93,-46.89,-32.19,-50.46,-54.22,-55.57
2021/03/09 01:26:16+0000,-38.46,-47.80,-32.07,-49.94,-54.07,-56.62
2021/03/09 01:27:08+0000,-37.53,-47.78,-33.24,-49.92,-54.33,-56.00
2021/03/09 01:28:00+0000,-38.21,-47.23,-32.76,-48.64,-54.41,-55.79
2021/03/09 01:28:52+0000,-37.41,-48.88,-33.32,-50.44,-54.44,-55.72
2021/03/09 01:29:44+0000,-37.56,-46.68,-33.17,-49.82,-53.93,-55.41
2021/03/09 01:30:36+0000,-38.35,-49.49,-32.45,-50.52,-54.45,-56.31
2021/03/09 01:31:36+0000,-37.29,-50.29,-32.07,-50.40,-54.23,-55.52
2021/03/09 01:32:28+0000,-38.08,-47.15,-32.71,-50.17,-53.94,-55.36
2021/03/09 01:33:20+0000,-37.53,-49.18,-32.43,-49.51,-54.62,-55.64
2021/03/09 01:34:13+0000,-37.81,-46.85,-32.13,-48.71,-55.07,-55.57
2021/03/09 01:35:05+0000,-37.74,-46.53,-31.98,-50.89,-54.85,-55.59
2021/03/09 01:35:57+0000,-38.60,-46.84,-32.51,-27.15,-53.85,-55.47
2021/03/09 01:36:49+0000,-36.89,-45.56,-32.20,-50.80,-54.73,-56.03
2021/03/09 01:37:41+0000,-37.74,-45.91,-32.20,-49.09,-54.08,-55.70
2021/03/09 01:38:33+0000,-38.41,-46.13,-32.39,-26.40,-54.21,-56.31
2021/03/09 01:39:25+0000,-37.62,-47.44,-32.60,-26.20,-54.11,-55.53
2021/03/09 01:40:17+0000,-37.03,-43.94,-32.23,-49.79,-54.23,-55.82
2021/03/09 01:41:17+0000,-36.97,-45.17,-32.19,-49.70,-54.11,-55.60
2021/03/09 01:42:09+0000,-36.99,-43.99,-32.58,-49.68,-54.09,-55.77
2021/03/09 01:43:01+0000,-37.84,-46.53,-31.85,-27.42,-54.09,-56.00
2021/03/09 01:43:53+0000,-37.26,-46.70,-31.70,-27.36,-53.59,-55.74
2021/03/09 01:44:45+0000,-37.60,-44.12,-32.62,-49.97,-54.14,-55.49
2021/03/09 01:45:37+0000,-37.58,-48.74,-32.95,-49.83,-54.77,-55.19
2021/03/09 01:46:29+0000,-37.36,-45.98,-32.84,-26.72,-54.13,-55.80
2021/03/09 01:47:21+0000,-36.96,-48.33,-31.86,-26.83,-53.79,-55.71
2021/03/09 01:48:13+0000,-37.01,-46.95,-32.09,-50.47,-53.98,-55.68
2021/03/09 01:49:05+0000,-37.30,-45.58,-32.55,-50.99,-53.89,-55.01
2021/03/09 01:49:58+0000,-38.29,-46.54,-32.33,-26.89,-53.95,-55.58
2021/03/09 01:50:50+0000,-38.41,-44.08,-32.59,-51.78,-54.37,-55.68
2021/03/09 01:51:49+0000,-38.64,-46.16,-32.43,-51.36,-54.43,-55.32
2021/03/09 01:52:41+0000,-37.55,-46.60,-32.28,-50.24,-54.65,-56.42
2021/03/09 01:53:33+0000,-38.52,-44.64,-32.39,-51.73,-54.73,-55.74
2021/03/09 01:54:25+0000,-38.28,-44.11,-32.00,-51.43,-55.01,-55.44
2021/03/09 01:55:17+0000,-38.52,-46.81,-32.26,-50.99,-55.20,-55.76
2021/03/09 01:56:09+0000,-38.18,-46.65,-32.67,-51.31,-54.33,-55.54
2021/03/09 01:57:01+0000,-38.10,-45.67,-32.69,-50.90,-54.73,-54.90
2021/03/09 01:57:53+0000,-37.78,-47.94,-33.18,-51.83,-54.71,-55.49
2021/03/09 01:58:45+0000,-38.32,-45.31,-32.61,-50.06,-54.67,-56.12
2021/03/09 01:59:37+0000,-38.84,-48.76,-32.17,-50.14,-53.89,-54.94
2021/03/09 02:00:29+0000,-38.52,-43.33,-32.65,-50.88,-55.18,-55.21
2021/03/09 02:01:29+0000,-37.48,-45.42,-32.04,-50.31,-54.87,-56.18
2021/03/09 02:02:21+0000,-38.97,-48.39,-32.62,-51.32,-55.06,-55.85
2021/03/09 02:03:14+0000,-37.60,-45.36,-32.66,-49.06,-54.60,-55.87
2021/03/09 02:04:06+0000,-38.11,-47.58,-32.30,-49.42,-55.75,-55.75
2021/03/09 02:04:58+0000,-37.98,-45.42,-32.80,-51.58,-54.34,-55.45
2021/03/09 02:05:50+0000,-38.77,-48.37,-32.88,-51.93,-55.19,-55.90
2021/03/09 02:06:42+0000,-39.01,-44.98,-32.15,-50.29,-54.99,-56.10
2021/03/09 02:07:34+0000,-38.73,-45.78,-32.38,-52.24,-55.07,-55.82
2021/03/09 02:08:26+0000,-38.10,-45.54,-32.33,-51.78,-54.13,-56.18
2021/03/09 02:09:18+0000,-38.20,-43.72,-32.62,-52.10,-55.18,-56.47
2021/03/09 02:10:10+0000,-39.07,-42.92,-32.48,-51.40,-53.98,-55.67
2021/03/09 02:11:10+0000,-39.00,-46.18,-32.78,-51.72,-53.44,-56.03
2021/03/09 02:12:02+0000,-38.10,-45.69,-32.69,-52.45,-53.67,-54.97
2021/03/09 02:12:54+0000,-38.35,-45.13,-33.02,-51.87,-54.11,-56.52
2021/03/09 02:13:46+0000,-38.18,-47.62,-32.80,-51.71,-54.11,-56.65
2021/03/09 02:14:38+0000,-37.99,-48.43,-33.22,-52.51,-54.60,-55.68
2021/03/09 02:15:30+0000,-38.65,-44.64,-32.84,-52.43,-54.82,-56.22
2021/03/09 02:16:22+0000,-36.30,-44.52,-32.57,-52.13,-54.37,-56.37
2021/03/09 02:17:15+0000,-38.35,-47.75,-32.80,-52.02,-54.37,-56.35
2021/03/09 02:18:07+0000,-37.57,-49.18,-32.61,-52.03,-54.80,-55.71
2021/03/09 02:18:59+0000,-38.57,-44.64,-33.17,-51.93,-54.34,-56.32
2021/03/09 02:19:51+0000,-37.52,-48.59,-32.67,-52.82,-54.17,-56.53
2021/03/09 02:20:43+0000,-37.98,-47.68,-32.82,-52.38,-54.17,-56.42
2021/03/09 02:21:43+0000,-36.86,-47.46,-32.87,-52.96,-54.66,-56.06
2021/03/09 02:22:35+0000,-37.04,-45.53,-32.03,-53.00,-54.75,-55.04
2021/03/09 02:23:27+0000,-37.51,-42.47,-32.40,-53.37,-53.96,-56.39
2021/03/09 02:24:19+0000,-38.64,-47.58,-32.39,-52.98,-54.59,-54.72
2021/03/09 02:25:11+0000,-37.52,-46.93,-32.57,-53.05,-54.02,-55.04
2021/03/09 02:26:03+0000,-38.32,-43.85,-32.73,-52.67,-54.61,-55.62
2021/03/09 02:26:55+0000,-37.75,-43.58,-32.44,-53.74,-54.54,-55.82
2021/03/09 02:27:47+0000,-37.91,-46.98,-32.74,-52.51,-54.98,-56.04
2021/03/09 02:28:39+0000,-36.47,-45.97,-32.53,-52.82,-55.25,-56.09
2021/03/09 02:29:31+0000,-38.38,-42.11,-32.73,-53.43,-55.20,-56.47
2021/03/09 02:30:23+0000,-35.25,-45.79,-32.75,-53.66,-54.94,-55.64
2021/03/09 02:31:24+0000,-36.09,-43.82,-32.66,-53.66,-55.01,-56.09
2021/03/09 02:32:16+0000,-38.92,-47.17,-32.62,-53.53,-54.59,-56.36
2021/03/09 02:33:08+0000,-36.81,-48.86,-32.90,-53.62,-54.86,-56.11
2021/03/09 02:34:00+0000,-38.15,-44.63,-32.43,-53.25,-54.58,-55.94
2021/03/09 02:34:52+0000,-38.89,-49.06,-33.13,-53.45,-55.04,-56.64
2021/03/09 02:35:44+0000,-37.07,-46.13,-32.51,-54.00,-55.13,-56.21
2021/03/09 02:36:36+0000,-37.73,-48.87,-32.35,-53.66,-54.65,-56.42
2021/03/09 02:37:28+0000,-38.16,-45.90,-32.86,-53.89,-54.87,-55.90
2021/03/09 02:38:20+0000,-36.97,-46.71,-32.88,-54.09,-54.32,-55.89
2021/03/09 02:39:12+0000,-38.19,-45.25,-32.94,-53.59,-55.29,-56.79
2021/03/09 02:40:04+0000,-36.85,-44.90,-32.51,-53.82,-54.95,-56.34
2021/03/09 02:41:04+0000,-37.82,-46.64,-32.63,-53.83,-54.65,-56.41
2021/03/09 02:41:56+0000,-37.04,-46.10,-33.35,-53.57,-55.03,-56.80
2021/03/09 02:42:48+0000,-36.79,-46.09,-33.16,-52.69,-54.37,-55.91
2021/03/09 02:43:41+0000,-36.78,-45.90,-32.43,-53.10,-55.07,-56.06
2021/03/09 02:44:33+0000,-37.38,-43.42,-32.32,-53.23,-54.51,-56.52
2021/03/09 02:45:25+0000,-35.35,-45.16,-32.74,-52.85,-54.57,-56.11
2021/03/09 02:46:17+0000,-38.04,-46.67,-33.02,-53.48,-54.94,-55.97
2021/03/09 02:47:09+0000,-37.55,-45.33,-31.81,-53.24,-54.57,-56.99
2021/03/09 02:48:01+0000,-37.37,-45.81,-32.58,-53.16,-54.72,-56.84
2021/03/09 02:48:53+0000,-36.83,-47.82,-33.32,-53.79,-54.16,-55.79
2021/03/09 02:49:45+0000,-37.40,-47.09,-32.33,-53.38,-54.55,-56.32
2021/03/09 02:50:37+0000,-36.27,-47.84,-32.65,-53.64,-53.86,-56.51
2021/03/09 02:51:38+0000,-36.74,-47.40,-32.76,-53.47,-54.89,-56.16
2021/03/09 02:52:30+0000,-38.78,-45.67,-33.07,-52.97,-54.37,-56.45
2021/03/09 02:53:22+0000,-37.26,-48.19,-32.65,-53.61,-54.13,-56.48
2021/03/09 02:54:14+0000,-36.83,-46.96,-32.46,-53.05,-54.55,-56.17
2021/03/09 02:55:06+0000,-37.79,-42.48,-33.14,-53.05,-54.02,-56.29
2021/03/09 02:55:58+0000,-37.81,-46.20,-32.79,-53.17,-53.76,-56.25
2021/03/09 02:56:50+0000,-36.84,-46.71,-32.63,-53.81,-54.16,-56.68
2021/03/09 02:57:42+0000,-37.10,-47.63,-32.66,-53.16,-54.39,-56.95
2021/03/09 02:58:34+0000,-38.27,-43.46,-32.47,-53.25,-53.54,-56.56
2021/03/09 02:59:26+0000,-35.64,-44.28,-32.42,-53.08,-53.46,-56.81
2021/03/09 03:00:18+0000,-38.72,-46.95,-32.66,-53.84,-53.83,-56.89
2021/03/09 03:01:19+0000,-34.66,-48.81,-32.28,-53.54,-54.70,-56.36
2021/03/09 03:02:11+0000,-38.46,-46.43,-32.37,-52.93,-54.19,-56.92
2021/03/09 03:03:03+0000,-38.42,-46.53,-32.37,-53.88,-54.18,-56.34
2021/03/09 03:03:55+0000,-35.18,-44.23,-32.68,-53.58,-54.20,-57.12
2021/03/09 03:04:47+0000,-37.96,-45.58,-32.39,-54.08,-54.43,-55.93
2021/03/09 03:05:40+0000,-37.57,-45.94,-32.77,-53.80,-54.48,-56.39
2021/03/09 03:06:32+0000,-37.49,-46.71,-32.45,-53.69,-54.39,-56.43
2021/03/09 03:07:24+0000,-36.65,-46.97,-32.73,-53.19,-54.19,-56.27
2021/03/09 03:08:16+0000,-37.43,-44.67,-33.04,-53.57,-54.88,-56.31
2021/03/09 03:09:08+0000,-37.18,-44.68,-32.70,-53.85,-54.24,-56.00
2021/03/09 03:10:00+0000,-38.86,-47.57,-33.39,-53.76,-53.57,-56.53
2021/03/09 03:11:00+0000,-37.22,-47.03,-33.03,-53.78,-54.56,-56.10
2021/03/09 03:11:52+0000,-35.64,-46.94,-33.15,-53.35,-53.94,-56.19
2021/03/09 03:12:44+0000,-38.35,-45.37,-32.50,-53.05,-54.51,-56.60
2021/03/09 03:13:36+0000,-37.44,-48.52,-32.58,-53.03,-55.10,-56.84
2021/03/09 03:14:28+0000,-37.63,-46.65,-32.71,-53.01,-54.38,-56.43
2021/03/09 03:15:20+0000,-37.15,-48.06,-32.72,-53.08,-53.29,-55.81
2021/03/09 03:16:12+0000,-37.75,-45.47,-32.44,-53.36,-54.38,-55.85
2021/03/09 03:17:04+0000,-37.44,-44.67,-32.98,-53.14,-54.11,-55.99
2021/03/09 03:17:56+0000,-37.40,-46.65,-32.97,-52.70,-54.52,-56.44
2021/03/09 03:18:48+0000,-37.17,-45.38,-32.20,-52.88,-53.90,-56.45
2021/03/09 03:19:41+0000,-37.04,-45.75,-32.79,-53.04,-53.68,-56.96
2021/03/09 03:20:33+0000,-37.31,-46.20,-32.18,-52.91,-53.97,-55.64
2021/03/09 03:21:32+0000,-36.80,-47.24,-32.52,-53.28,-54.02,-56.47
2021/03/09 03:22:25+0000,-36.39,-46.66,-32.95,-53.32,-54.16,-55.89
2021/03/09 03:23:17+0000,-36.51,-44.11,-32.32,-53.28,-53.79,-56.63
2021/03/09 03:24:09+0000,-36.19,-43.65,-32.90,-53.27,-54.01,-56.10
2021/03/09 03:25:01+0000,-36.46,-45.13,-32.74,-52.85,-53.94,-55.79
2021/03/09 03:25:53+0000,-38.07,-46.51,-31.82,-52.97,-53.55,-55.96
2021/03/09 03:26:45+0000,-38.08,-45.03,-32.72,-52.40,-54.05,-56.87
2021/03/09 03:27:37+0000,-37.39,-47.02,-32.27,-53.01,-54.07,-56.59
2021/03/09 03:28:29+0000,-37.95,-44.23,-32.20,-52.77,-53.83,-56.29
2021/03/09 03:29:21+0000,-38.25,-48.02,-32.65,-53.01,-54.06,-56.29
2021/03/09 03:30:14+0000,-37.44,-45.39,-31.79,-52.76,-54.37,-56.27
2021/03/09 03:31:14+0000,-36.75,-46.24,-32.01,-53.52,-53.77,-56.20
2021/03/09 03:32:06+0000,-35.09,-48.27,-32.67,-52.90,-54.31,-56.24
2021/03/09 03:32:58+0000,-35.57,-43.47,-32.84,-53.41,-53.59,-56.22
2021/03/09 03:33:50+0000,-36.68,-48.22,-33.07,-53.08,-54.23,-56.48
2021/03/09 03:34:42+0000,-36.20,-44.57,-31.83,-53.19,-53.79,-56.13
2021/03/09 03:35:34+0000,-34.84,-43.49,-32.58,-53.24,-54.16,-56.47
2021/03/09 03:36:26+0000,-37.53,-43.83,-32.83,-53.10,-53.28,-56.12
2021/03/09 03:37:18+0000,-36.98,-44.46,-32.72,-53.15,-52.98,-56.67
2021/03/09 03:38:10+0000,-37.31,-46.42,-31.79,-52.87,-54.26,-56.18
2021/03/09 03:39:02+0000,-37.01,-46.50,-32.70,-53.41,-53.96,-56.33
2021/03/09 03:39:55+0000,-35.49,-46.45,-32.85,-53.20,-54.36,-56.63
2021/03/09 03:40:47+0000,-37.26,-42.61,-32.50,-53.37,-53.59,-56.38
2021/03/09 03:41:47+0000,-36.86,-43.55,-32.71,-53.18,-53.83,-56.31
2021/03/09 03:42:39+0000,-38.35,-42.71,-32.73,-52.85,-54.43,-55.68
2021/03/09 03:43:31+0000,-37.15,-46.39,-32.43,-52.91,-54.02,-56.82
2021/03/09 03:44:23+0000,-37.42,-46.23,-32.53,-53.21,-53.70,-56.40
2021/03/09 03:45:15+0000,-38.51,-41.63,-32.61,-53.41,-54.41,-56.79
2021/03/09 03:46:07+0000,-36.46,-48.65,-32.44,-52.99,-53.65,-56.35
2021/03/09 03:46:59+0000,-38.73,-46.84,-32.14,-53.26,-54.03,-56.46
2021/03/09 03:47:51+0000,-37.34,-47.90,-32.51,-53.15,-54.06,-56.56
2021/03/09 03:48:43+0000,-37.40,-46.89,-32.32,-53.32,-54.40,-56.43
2021/03/09 03:49:35+0000,-37.77,-48.32,-32.37,-53.25,-55.06,-56.77
2021/03/09 03:50:28+0000,-37.54,-44.75,-32.42,-53.42,-53.72,-56.82
2021/03/09 03:51:28+0000,-37.57,-44.45,-33.18,-53.45,-54.06,-56.80
2021/03/09 03:52:20+0000,-36.23,-47.93,-32.46,-53.12,-54.39,-56.49
2021/03/09 03:53:12+0000,-37.91,-46.99,-32.50,-53.01,-54.17,-56.86
2021/03/09 03:54:04+0000,-38.11,-44.05,-32.16,-53.17,-54.09,-56.70
2021/03/09 03:54:56+0000,-37.61,-44.33,-32.24,-52.90,-54.73,-56.43
2021/03/09 03:55:48+0000,-37.37,-46.63,-32.07,-52.91,-54.08,-56.47
2021/03/09 03:56:40+0000,-37.40,-45.19,-32.71,-53.36,-54.65,-56.42
2021/03/09 03:57:32+0000,-37.11,-46.17,-32.43,-52.95,-53.92,-56.52
2021/03/09 03:58:24+0000,-38.38,-45.91,-31.86,-53.33,-53.66,-56.45
2021/03/09 03:59:16+0000,-37.17,-45.35,-32.17,-53.28,-53.96,-57.13
2021/03/09 04:00:09+0000,-37.10,-46.89,-32.32,-53.67,-53.94,-56.57
2021/03/09 04:01:09+0000,-37.22,-47.18,-32.59,-53.42,-53.73,-56.03
2021/03/09 04:02:01+0000,-37.61,-46.20,-31.94,-54.28,-54.04,-55.58
2021/03/09 04:02:53+0000,-37.78,-46.88,-31.98,-54.17,-53.89,-56.07
2021/03/09 04:03:45+0000,-37.04,-47.17,-32.02,-54.20,-53.84,-55.89
2021/03/09 04:04:37+0000,-37.93,-47.64,-32.28,-54.30,-54.21,-55.89
2021/03/09 04:05:30+0000,-37.78,-45.60,-31.73,-54.38,-53.85,-55.86
2021/03/09 04:06:22+0000,-38.84,-48.03,-31.63,-53.88,-52.84,-55.48
2021/03/09 04:07:14+0000,-38.85,-46.42,-31.92,-54.03,-53.77,-55.82
2021/03/09 04:08:06+0000,-38.16,-48.35,-31.91,-53.52,-54.03,-55.82
2021/03/09 04:08:58+0000,-38.46,-46.69,-32.29,-53.76,-54.30,-55.66
2021/03/09 04:09:50+0000,-38.11,-47.26,-31.82,-53.66,-54.02,-55.65
2021/03/09 04:10:42+0000,-38.38,-44.37,-31.89,-53.80,-54.02,-55.82
2021/03/09 04:11:42+0000,-37.28,-45.63,-32.44,-53.84,-54.03,-56.00
2021/03/09 04:12:34+0000,-37.38,-45.65,-31.67,-54.02,-53.74,-55.51
2021/03/09 04:13:26+0000,-38.11,-45.88,-31.94,-53.12,-53.59,-55.68
2021/03/09 04:14:18+0000,-38.06,-45.77,-32.35,-53.84,-53.40,-55.47
2021/03/09 04:15:10+0000,-37.84,-46.09,-32.53,-53.65,-53.10,-55.37
2021/03/09 04:16:02+0000,-37.91,-44.90,-32.75,-53.22,-54.12,-55.42
2021/03/09 04:16:54+0000,-37.58,-47.17,-32.36,-53.47,-53.84,-54.78
2021/03/09 04:17:46+0000,-36.42,-45.70,-32.48,-53.67,-53.86,-55.38
2021/03/09 04:18:38+0000,-38.21,-45.51,-32.33,-53.87,-53.74,-54.03
2021/03/09 04:19:30+0000,-38.20,-45.04,-32.07,-53.89,-53.27,-54.00
2021/03/09 04:20:23+0000,-36.81,-46.82,-32.79,-53.28,-53.24,-52.89
2021/03/09 04:21:22+0000,-37.74,-47.46,-32.58,-54.29,-53.68,-53.30
2021/03/09 04:22:14+0000,-38.74,-45.22,-32.56,-53.89,-53.60,-53.43
2021/03/09 04:23:06+0000,-37.58,-47.78,-32.70,-54.03,-53.29,-54.15
2021/03/09 04:23:58+0000,-36.89,-46.07,-32.41,-53.58,-53.48,-53.17
2021/03/09 04:24:50+0000,-36.88,-45.56,-32.35,-53.43,-54.14,-53.39
2021/03/09 04:25:42+0000,-37.27,-44.56,-32.28,-54.22,-53.88,-53.69
2021/03/09 04:26:34+0000,-37.33,-46.58,-32.07,-52.67,-53.83,-52.62
2021/03/09 04:27:26+0000,-36.75,-47.72,-31.85,-53.71,-53.66,-53.47
2021/03/09 04:28:18+0000,-35.88,-44.59,-32.73,-53.23,-53.70,-52.95
2021/03/09 04:29:10+0000,-37.46,-45.92,-32.67,-53.19,-53.75,-52.88
2021/03/09 04:30:03+0000,-36.72,-45.24,-32.28,-53.00,-53.22,-53.11
2021/03/09 04:31:12+0000,-37.13,-45.31,-32.45,-52.92,-52.76,-53.75
2021/03/09 04:32:04+0000,-37.84,-45.31,-31.86,-54.10,-53.22,-53.19
2021/03/09 04:32:56+0000,-37.20,-46.06,-32.52,-53.53,-53.60,-53.02
2021/03/09 04:33:49+0000,-36.50,-44.18,-32.44,-53.99,-53.61,-53.46
2021/03/09 04:34:41+0000,-36.54,-46.30,-33.20,-53.25,-53.07,-53.43
2021/03/09 04:35:33+0000,-37.39,-46.96,-32.62,-54.13,-54.03,-53.54
2021/03/09 04:36:25+0000,-37.62,-45.98,-32.35,-53.08,-53.94,-53.49
2021/03/09 04:37:17+0000,-37.77,-46.67,-32.96,-53.98,-54.04,-53.65
2021/03/09 04:38:09+0000,-37.92,-45.26,-32.68,-53.89,-53.54,-54.17
2021/03/09 04:39:01+0000,-37.79,-46.85,-33.05,-53.55,-53.38,-53.39
2021/03/09 04:39:53+0000,-37.32,-47.49,-32.81,-53.24,-52.95,-54.03
2021/03/09 04:40:45+0000,-37.99,-46.61,-33.55,-53.24,-52.75,-53.45
2021/03/09 04:41:45+0000,-37.18,-46.82,-33.37,-53.67,-53.56,-53.08
2021/03/09 04:42:37+0000,-37.31,-47.69,-32.79,-53.39,-53.84,-53.11
2021/03/09 04:43:29+0000,-37.59,-44.86,-33.69,-53.55,-53.19,-52.96
2021/03/09 04:44:21+0000,-37.40,-47.65,-32.93,-53.21,-53.46,-54.39
2021/03/09 04:45:13+0000,-37.40,-46.49,-32.48,-52.87,-53.73,-53.11